Location: Augirein
(42.9320°N, 0.9181°E)
Time: 03:00:52
(UTC+00:00)

BREEZE-M R/B - Pass Details

Date: 20 June 2021
Orbit: 579 x 26589 km, 48.9° (Epoch: 31 July)

Event Time Altitude Azimuth Distance (km) Brightness Sun altitude
Exits shadow 01:16:18 45° 138° (SE) 791 2.8 -21.2°
Drops below altitude 10° 01:20:09 10° 69° (ENE) 2,312 6.0 -21.0°
Sets 01:23:22 0° 63° (ENE) 3,956 7.4 -20.8°
